Regional Weather Roundup
Issued by NWS

Home | Current Version | Previous Version | Graphics & Text | Print | Product List | Glossary On
Versions: 1 2 3 4 5 6 7 8 9 10 11 12 13 14 15 16 17 18 19 20 21 22 23 24 25 26 27 28 29 30 31 32 33 34 35 36 37 38 39 40 41 42 43 44 45 46 47 48 49 50
000
ASUS43 KMKX 270928
RWRWI

WISCONSIN REGIONAL WEATHER ROUNDUP
NATIONAL WEATHER SERVICE MILWAUKEE/SULLIVAN WI
400 AM CDT WED MAY 27 2015

NOTE: "FAIR" INDICATES FEW OR NO CLOUDS BELOW 12,000 FEET WITH NO
SIGNIFICANT WEATHER AND/OR OBSTRUCTIONS TO VISIBILITY.

WIZ001-002-006>008-014>016-023>028-271000-
NORTHWEST WISCONSIN

CITY           SKY/WX    TMP DP  RH WIND       PRES   REMARKS
SUPERIOR ARPT  MOCLDY    50  50  98 SW7       29.78S
ASHLAND        CLOUDY    52  52 100 SW5       29.77S
HAYWARD        CLOUDY    52  50  93 SW3       29.81R
SIREN          CLOUDY    52  52  98 CALM      29.83R
CUMBERLAND     CLOUDY    52  50  93 W6        29.83R
RICE LAKE      CLOUDY    54  52  94 W3        29.83R
CHETEK         CLOUDY    54  54  99 CALM      29.82R
LADYSMITH      RAIN      55  54  97 W5        29.81R
EAU CLAIRE     CLOUDY    56  54  93 W5        29.82R
MENOMONIE      CLOUDY    56  56 100 W5        29.83R
NEW RICHMOND   CLOUDY    55  55 100 CALM      29.84S FOG
OSCEOLA        CLOUDY    53  53 100 CALM      29.86S
$$

WIZ003>005-009-010-017-018-271000-
NORTH CENTRAL WISCONSIN

CITY           SKY/WX    TMP DP  RH WIND       PRES   REMARKS
MANITOWISH WTR RAIN      51  51 100 N3        29.75R
ARBOR VITAE    DRIZZLE   53  52  95 NW8       29.74R
WOODRUFF       DRIZZLE   53  52  95 NW8       29.74R
RHINELANDER    LGT RAIN  53  51  93 VRB7      29.73R
EAGLE RIVER    LGT RAIN  52  52 100 N9        29.71R
LAND O LAKES   CLOUDY    52  51  97 N9        29.73R
PHILLIPS       RAIN      51  51 100 CALM      29.76S
TOMAHAWK       CLOUDY    52  51  95 W8        29.75R
MEDFORD        DRIZZLE   53  52  97 W8        29.78R
MERRILL        CLOUDY    55  54  99 W8        29.76R
$$

WIZ029-030-035-036-043>047-271000-
CENTRAL WISCONSIN

CITY           SKY/WX    TMP DP  RH WIND       PRES   REMARKS
WAUSAU         LGT RAIN  56  54  93 W13       29.74R FOG
MOSINEE        HVY RAIN  54  54 100 W10       29.77R
MARSHFIELD     LGT RAIN  57  53  86 W12       29.78R
STEVENS POINT  LGT RAIN  56  55  96 W8        29.76R
WAUPACA        CLOUDY    61  60  96 W14       29.75R
WAUTOMA        CLOUDY    61  61 100 W12       29.78R
WISC RAPIDS    CLOUDY    58  55  90 W9        29.79R
CAMP DOUGLAS   MOCLDY    59  59 100 MISG        N/A
$$

WIZ011>013-019>022-031-037>040-048>050-271000-
NORTHEAST WISCONSIN

CITY           SKY/WX    TMP DP  RH WIND       PRES   REMARKS
ANTIGO         DRIZZLE   55  54  99 NW8       29.72R
SHAWANO        CLOUDY    62  59  89 W9G17     29.70R
OCONTO         CLOUDY    62  62 100 W13G23    29.65R
STURGEON BAY   CLOUDY    63  57  82 SW17G28   29.68R
GREEN BAY      CLOUDY    63  59  87 SW14G23   29.71R
MANITOWOC      CLOUDY    64  58  80 SW14G24   29.72R
APPLETON       CLOUDY    61  55  82 W14       29.74S
CLINTONVILLE   RAIN      59  57  94 W8        29.71R
OSHKOSH        CLOUDY    62  57  83 SW9G17    29.75R
$$

WIZ032>034-041-042-053>061-271000-
SOUTHWEST WISCONSIN

CITY           SKY/WX    TMP DP  RH WIND       PRES   REMARKS
LA CROSSE      LGT RAIN  60  57  89 W5        29.82R
SPARTA         CLOUDY    58  57  96 W3        29.82S
VIROQUA        CLOUDY    58  58 100 W7        29.83S
BOSCOBEL       LGT RAIN  61  58  90 SW5       29.83R
PRAIRIE DU CHI CLOUDY    60  57  89 NW7       29.84R
PLATTEVILLE    CLOUDY    60  59  97 SW7       29.85R
$$

WIZ056-057-062-063-064-067-068-271000-
SOUTH CENTRAL WISCONSIN

CITY           SKY/WX    TMP DP  RH WIND       PRES   REMARKS
REEDSBURG      CLOUDY    59  57  94 SW6       29.80S
BARABOO/DELLS  CLOUDY    59  56  89 W6        29.80S
LONE ROCK      CLOUDY    60  58  92 SW6       29.83R
MINERAL POINT  CLOUDY    61  59  94 W5        29.84R
MADISON        LGT RAIN  61  57  87 VRB3      29.81R
MIDDLETON      CLOUDY    61  59  94 SW6       29.82S
WATERTOWN      PTCLDY   N/A N/A N/A SW6       29.80S
MONROE         CLOUDY    61  59  94 SW8       29.83S
JANESVILLE     CLOUDY    63  61  94 W6        29.83R
$$

WIZ051-052-058>065-066-070>072-271000-
SOUTHEAST WISCONSIN

CITY           SKY/WX    TMP DP  RH WIND       PRES   REMARKS
MILWAUKEE      PTCLDY    63  59  87 SW6       29.80S
WAUKESHA       CLEAR     57  55  94 SW5       29.82R
MILWAUKEE/TIMM CLEAR     61  54  77 SW7       29.81R
RACINE         PTCLDY    64  60  87 SW8       29.83R
BURLINGTON     PTCLDY    60  59  97 SW8       29.82R
KENOSHA        PTCLDY    63  61  93 SW10      29.83R
FOND DU LAC    MOCLDY    61  56  83 SW8G17    29.77R
SHEBOYGAN      CLOUDY    62  57  83 W15G23    29.76R
WEST BEND      CLEAR     59  55  88 SW9       29.79R
JUNEAU         CLOUDY    58  57  95 SW10      29.82R
$$

LSZ147-162-271000-
LAKE SUPERIOR

STATION/POSITION TIME  TEMP    WIND        PRES    WAVE
                       AIR SEA DIR/SP/G            HT/PER
                 (UTC) (F)     (DEG/KT/KT) (MB)    (FT/S)
W MID LAKE BUOY  0850   40 37  230/  6/  8 1076.0R   0
DEVILS ISLAND    0900   48     230/ 14/ 15 1079.0S
PORT WING        0840   52     180/  5/  6 1085.0S
SAXON HARBOR     0800   51        CALM     1078.0S
$$

LMZ867-665-643>646-271000-
LAKE MICHIGAN

STATION/POSITION TIME  TEMP    WIND        PRES    WAVE
                       AIR SEA DIR/SP/G            HT/PER
                 (UTC) (F)     (DEG/KT/KT) (MB)    (FT/S)
CHAMBERS ISLAND  0800   58     180/  6/ 14 1030.0S
N MID LAKE BUOY  0850   43 37  190/ 17/ 19 1037.0F   4/ 5
NORTHPORT PIER   0700   50     140/  8/  9 1034.0F
SISTER BAY       0803   52     170/  9/ 11   N/A
ALGOMA LAKESHORE 0823          220/ 27/ 33   N/A
KEWAUNEE LAKESHO 0800   65     230/ 21/ 28 1040.0R
SHEBOYGAN LAKESH 0900   62     230/ 14/ 16 1078.0R
PORT WASHINGTON  0700   64     240/  5/ 12 1088.0R
ATWATER BUOY     0900   60 44  230/  8/ 10   N/A
MILWAUKEE LAKESH 0900   64     240/  7/  9   N/A
S MID LAKE BUOY  0850   44 38  200/ 10/ 12   N/A     2/ 4
KENOSHA   LAKESH 0900   64     230/  7/  9   N/A
$$

TC  - TEMPERATURE IN CELSIUS
VSB - VISIBILITY IN STATUTE MILES
WCI - WIND CHILL INDEX
HX  - HEAT INDEX



USA.gov is the U.S. government's official web portal to all federal, state and local government web resources and services.